Norfolk International Airport Airport (ORF)

 

Airport Diagram
Current Weather/Forecast (VFR Conditions)
METAR KORF 121751Z 14007KT 10SM FEW041 FEW050 33/23 A3000 RMK AO2 SLP158 T03330233 10339 20261 58013
TAF KORF 121730Z 1218/1318 20008KT P6SM VCSH BKN040 FM122000 19006KT P6SM BKN050 FM130200 VRB03KT P6SM SCT030 BKN100 FM131400 10006KT P6SM BKN040

All Charts
General
Chart Name Download
AIRPORT DIAGRAM
TAKEOFF MINIMUMS
ALTERNATE MINIMUMS

Departures
Chart Name Download
KISRR THREE

Arrivals
Chart Name Download
DRONE TWO
DRONE TWO, CONT.1
TERKS TWO

Approaches
Chart Name Download
ILS OR LOC RWY 05
ILS OR LOC RWY 23
RNAV (RNP) Y RWY 05
RNAV (RNP) Y RWY 23
RNAV (GPS) RWY 14
RNAV (GPS) RWY 32
RNAV (GPS) Z RWY 05
RNAV (GPS) Z RWY 23
VOR/DME RWY 32
VOR RWY 14
RIVER VISUAL RWY 05


Inbound Traffic (Arrivals)

No inbound traffic.


Outbound Traffic (Departures)

No outbound traffic.